When you browse on this site, cookies collect data to enhance your experience and personalize the content and advertising you see.
Visit our Privacy Policy to learn more. By continuing to use the site, you agree to this use of cookies and data.
  • In France
  • List of Countries
  • For 7 days
  • Water Temperature
  • Satellite Maps
  • Weather Map
  • Weather Widgets
  • user-avatar
    Login

    Hourly Weather Lutkovo

    Today, 19 February, Tuesday

    Time Temperature Precipitation Wind Pressure Humidity
    00:00 -4°C° 0 mm 4 mps 755 mmHg 72%
    01:00 -4°C° 0 mm 5 mps 754 mmHg 74%
    02:00 -4°C° 0 mm 5 mps 754 mmHg 75%
    03:00 -4°C° 0 mm 5 mps 753 mmHg 78%
    04:00 -4°C° 0 mm 5 mps 753 mmHg 81%
    05:00 -2°C° 0 mm 5 mps 752 mmHg 84%
    06:00 -2°C° 0 mm 5 mps 752 mmHg 86%
    07:00 -2°C° 0 mm 5 mps 751 mmHg 87%
    08:00 -2°C° 0 mm 5 mps 751 mmHg 88%
    09:00 -1°C° 0 mm 5 mps 750 mmHg 88%
    10:00 -1°C° 0 mm 5 mps 750 mmHg 87%
    11:00 0°C° 0 mm 5 mps 749 mmHg 87%
    12:00 0°C° 0 mm 5 mps 749 mmHg 86%
    13:00 0°C° 0 mm 5 mps 748 mmHg 86%
    14:00 +1°C° 0 mm 5 mps 747 mmHg 86%
    15:00 +1°C° 0 mm 5 mps 747 mmHg 86%
    16:00 0°C° 0 mm 5 mps 746 mmHg 87%
    17:00 0°C° 0 mm 4 mps 745 mmHg 88%
    18:00 0°C° 0 mm 5 mps 745 mmHg 88%
    19:00 0°C° 0 mm 5 mps 744 mmHg 89%
    20:00 0°C° 0 mm 5 mps 743 mmHg 89%
    21:00 0°C° 0 mm 5 mps 742 mmHg 89%
    22:00 0°C° 0 mm 5 mps 742 mmHg 89%
    23:00 0°C° 0 mm 4 mps 741 mmHg 89%

    Tomorrow, 20 February, Wednesday

    Time Temperature Precipitation Wind Pressure Humidity
    00:00 0°C° 0.4 mm 4 mps 741 mmHg 90%
    01:00 0°C° 0.4 mm 4 mps 741 mmHg 90%
    02:00 0°C° 0.4 mm 4 mps 741 mmHg 91%
    03:00 0°C° 0.1 mm 4 mps 740 mmHg 91%
    04:00 0°C° 0.1 mm 4 mps 740 mmHg 91%
    05:00 0°C° 0.1 mm 4 mps 740 mmHg 92%
    06:00 +1°C° 0.1 mm 4 mps 740 mmHg 91%
    07:00 +1°C° 0.1 mm 5 mps 740 mmHg 90%
    08:00 +1°C° 0.1 mm 5 mps 740 mmHg 90%
    09:00 +1°C° 0 mm 5 mps 739 mmHg 88%
    10:00 +1°C° 0 mm 5 mps 739 mmHg 86%
    11:00 +1°C° 0 mm 5 mps 739 mmHg 85%
    12:00 +1°C° 0.1 mm 5 mps 739 mmHg 84%
    13:00 +1°C° 0.1 mm 5 mps 739 mmHg 84%
    14:00 +1°C° 0.1 mm 5 mps 738 mmHg 84%
    15:00 +1°C° 0.4 mm 5 mps 738 mmHg 84%
    16:00 0°C° 0.4 mm 5 mps 738 mmHg 83%
    17:00 0°C° 0.4 mm 5 mps 738 mmHg 83%
    18:00 -1°C° 0.2 mm 5 mps 739 mmHg 84%
    19:00 -2°C° 0.2 mm 5 mps 739 mmHg 85%
    20:00 -4°C° 0.2 mm 5 mps 740 mmHg 86%
    21:00 -4°C° 0.3 mm 6 mps 740 mmHg 85%
    22:00 -4°C° 0.3 mm 6 mps 741 mmHg 85%
    23:00 -4°C° 0.3 mm 6 mps 742 mmHg 84%

    Day after tomorrow, 21 February, Thursday

    Time Temperature Precipitation Wind Pressure Humidity
    00:00 -5°C° 0.1 mm 6 mps 742 mmHg 82%
    01:00 -5°C° 0.1 mm 6 mps 743 mmHg 79%
    02:00 -5°C° 0.1 mm 6 mps 744 mmHg 77%
    03:00 -5°C° 0.1 mm 6 mps 744 mmHg 76%
    04:00 -6°C° 0.1 mm 6 mps 745 mmHg 76%
    05:00 -8°C° 0.1 mm 6 mps 746 mmHg 75%
    06:00 -8°C° 0.1 mm 6 mps 746 mmHg 74%
    07:00 -8°C° 0.1 mm 6 mps 747 mmHg 73%
    08:00 -8°C° 0.1 mm 6 mps 748 mmHg 73%
    09:00 -8°C° 0.1 mm 6 mps 749 mmHg 71%
    10:00 -8°C° 0.1 mm 6 mps 749 mmHg 70%
    11:00 -8°C° 0.1 mm 6 mps 750 mmHg 69%
    12:00 -6°C° 0.1 mm 6 mps 751 mmHg 68%
    13:00 -6°C° 0.1 mm 6 mps 751 mmHg 66%
    14:00 -6°C° 0.1 mm 5 mps 752 mmHg 65%
    15:00 -7°C° 0.1 mm 5 mps 753 mmHg 66%
    16:00 -7°C° 0.1 mm 5 mps 754 mmHg 67%
    17:00 -8°C° 0.1 mm 5 mps 755 mmHg 68%
    18:00 -8°C° 0 mm 5 mps 756 mmHg 68%
    19:00 -10°C° 0 mm 5 mps 757 mmHg 68%
    20:00 -10°C° 0 mm 5 mps 757 mmHg 68%
    21:00 -11°C° 0 mm 5 mps 758 mmHg 68%
    22:00 -11°C° 0 mm 5 mps 759 mmHg 68%
    23:00 -11°C° 0 mm 5 mps 759 mmHg 67%

    22 February, Friday

    Time Temperature Precipitation Wind Pressure Humidity
    00:00 -10°C° 0 mm 4 mps 760 mmHg 68%
    01:00 -11°C° 0 mm 4 mps 761 mmHg 69%
    02:00 -11°C° 0 mm 4 mps 762 mmHg 70%
    03:00 -11°C° 0 mm 4 mps 762 mmHg 72%
    04:00 -11°C° 0 mm 4 mps 763 mmHg 74%
    05:00 -10°C° 0 mm 3 mps 764 mmHg 76%
    06:00 -10°C° 0 mm 3 mps 764 mmHg 77%
    07:00 -10°C° 0 mm 3 mps 765 mmHg 77%
    08:00 -12°C° 0 mm 3 mps 766 mmHg 78%
    09:00 -10°C° 0 mm 3 mps 766 mmHg 72%
    10:00 -9°C° 0 mm 3 mps 766 mmHg 65%
    11:00 -9°C° 0 mm 4 mps 766 mmHg 59%
    12:00 -8°C° 0 mm 4 mps 766 mmHg 59%
    13:00 -8°C° 0 mm 4 mps 766 mmHg 58%
    14:00 -7°C° 0 mm 5 mps 766 mmHg 58%
    15:00 -7°C° 0 mm 5 mps 766 mmHg 63%
    16:00 -7°C° 0 mm 4 mps 767 mmHg 67%
    17:00 -8°C° 0 mm 4 mps 767 mmHg 72%
    18:00 -8°C° 0 mm 4 mps 767 mmHg 73%
    19:00 -9°C° 0 mm 4 mps 768 mmHg 74%
    20:00 -9°C° 0 mm 4 mps 768 mmHg 75%
    21:00 -8°C° 0 mm 3 mps 769 mmHg 76%
    22:00 -8°C° 0 mm 3 mps 769 mmHg 76%
    23:00 -9°C° 0 mm 3 mps 769 mmHg 77%

    23 February, Saturday

    Time Temperature Precipitation Wind Pressure Humidity
    00:00 -8°C° 0 mm 2 mps 769 mmHg 80%
    01:00 -7°C° 0 mm 1 mps 769 mmHg 83%
    02:00 -8°C° 0 mm 1 mps 769 mmHg 86%
    03:00 -8°C° 0 mm 1 mps 769 mmHg 86%
    04:00 -8°C° 0 mm 1 mps 769 mmHg 85%
    05:00 -8°C° 0 mm 1 mps 768 mmHg 85%
    06:00 -7°C° 0 mm 1 mps 768 mmHg 84%
    07:00 -7°C° 0 mm 1 mps 768 mmHg 84%
    08:00 -7°C° 0 mm 1 mps 768 mmHg 83%
    09:00 -6°C° 0.1 mm 1 mps 767 mmHg 82%
    10:00 -7°C° 0.1 mm 2 mps 767 mmHg 82%
    11:00 -6°C° 0.1 mm 2 mps 766 mmHg 81%
    12:00 -6°C° 0.4 mm 2 mps 766 mmHg 84%
    13:00 -6°C° 0.4 mm 2 mps 765 mmHg 86%
    14:00 -7°C° 0.4 mm 3 mps 765 mmHg 89%
    15:00 -5°C° 0.2 mm 2 mps 765 mmHg 89%
    16:00 -5°C° 0.2 mm 2 mps 765 mmHg 88%
    17:00 -5°C° 0.2 mm 2 mps 765 mmHg 88%
    18:00 -5°C° 0 mm 2 mps 765 mmHg 90%
    19:00 -6°C° 0 mm 2 mps 766 mmHg 91%
    20:00 -4°C° 0 mm 1 mps 766 mmHg 93%
    21:00 -4°C° 0 mm 1 mps 766 mmHg 94%
    22:00 -6°C° 0 mm 1 mps 767 mmHg 94%
    23:00 -7°C° 0 mm 2 mps 767 mmHg 95%

    24 February, Sunday

    Time Temperature Precipitation Wind Pressure Humidity
    00:00 -6°C° 0 mm 1 mps 767 mmHg 95%
    01:00 -6°C° 0 mm 1 mps 768 mmHg 95%
    02:00 -7°C° 0 mm 1 mps 768 mmHg 95%
    03:00 -7°C° 0 mm 1 mps 768 mmHg 95%
    04:00 -8°C° 0 mm 2 mps 768 mmHg 95%
    05:00 -8°C° 0 mm 2 mps 768 mmHg 95%
    06:00 -7°C° 0 mm 2 mps 768 mmHg 95%
    07:00 -7°C° 0 mm 2 mps 768 mmHg 94%
    08:00 -7°C° 0 mm 2 mps 768 mmHg 94%
    09:00 -6°C° 0 mm 3 mps 768 mmHg 91%
    10:00 -5°C° 0 mm 3 mps 768 mmHg 87%
    11:00 -4°C° 0 mm 3 mps 767 mmHg 84%
    12:00 -2°C° 0 mm 3 mps 767 mmHg 83%
    13:00 -3°C° 0 mm 4 mps 766 mmHg 83%
    14:00 -2°C° 0 mm 4 mps 766 mmHg 82%
    15:00 -2°C° 0 mm 4 mps 765 mmHg 83%
    16:00 -2°C° 0 mm 4 mps 764 mmHg 85%
    17:00 -3°C° 0 mm 4 mps 763 mmHg 87%
    18:00 -2°C° 0.2 mm 4 mps 762 mmHg 87%
    19:00 -2°C° 0.2 mm 5 mps 761 mmHg 88%
    20:00 -2°C° 0.2 mm 5 mps 761 mmHg 89%
    21:00 -2°C° 0.1 mm 5 mps 760 mmHg 90%
    22:00 -1°C° 0.1 mm 4 mps 759 mmHg 91%
    23:00 -1°C° 0.1 mm 4 mps 758 mmHg 92%
    Show more